When you browse on this site, cookies collect data to enhance your experience and personalize the content and advertising you see.
Visit our Privacy Policy to learn more. By continuing to use the site, you agree to this use of cookies and data.
  • în România
  • Lista ţărilor
  • Pe 7 zile
  • Temperatura apei
  • Hartă satelitară
  • Meteo pe hartă
  • Widget-uri
  • user-avatar
    Intrare

    Meteo pe oră la Imbramowice

    Astăzi, 25 Mai, Sâmbătă

    Timp Temperatura Precipitaţii Vânt Presiune Umiditate
    00:00 +12°C° 0 mm 2 m/s 743 mmHg 71%
    01:00 +12°C° 0 mm 2 m/s 743 mmHg 73%
    02:00 +12°C° 0 mm 2 m/s 743 mmHg 75%
    03:00 +12°C° 0 mm 2 m/s 743 mmHg 77%
    04:00 +12°C° 0 mm 2 m/s 743 mmHg 80%
    05:00 +14°C° 0 mm 2 m/s 743 mmHg 78%
    06:00 +15°C° 0 mm 2 m/s 743 mmHg 76%
    07:00 +17°C° 0 mm 2 m/s 743 mmHg 74%
    08:00 +18°C° 0.4 mm 3 m/s 744 mmHg 73%
    09:00 +19°C° 0.4 mm 3 m/s 744 mmHg 71%
    10:00 +20°C° 0.4 mm 3 m/s 744 mmHg 70%
    11:00 +20°C° 0.6 mm 3 m/s 744 mmHg 69%
    12:00 +21°C° 0.6 mm 3 m/s 744 mmHg 68%
    13:00 +21°C° 0.6 mm 3 m/s 744 mmHg 66%
    14:00 +21°C° 0.5 mm 3 m/s 744 mmHg 68%
    15:00 +20°C° 0.5 mm 3 m/s 743 mmHg 69%
    16:00 +20°C° 0.5 mm 3 m/s 743 mmHg 71%
    17:00 +19°C° 0.2 mm 2 m/s 743 mmHg 75%
    18:00 +18°C° 0.2 mm 2 m/s 743 mmHg 79%
    19:00 +17°C° 0.2 mm 2 m/s 744 mmHg 83%
    20:00 +16°C° 0 mm 2 m/s 744 mmHg 85%
    21:00 +14°C° 0 mm 2 m/s 744 mmHg 87%
    22:00 +13°C° 0 mm 2 m/s 745 mmHg 89%
    23:00 +12°C° 0 mm 2 m/s 745 mmHg 90%

    Mâine, 26 Mai, Duminică

    Timp Temperatura Precipitaţii Vânt Presiune Umiditate
    00:00 +10°C° 0 mm 2 m/s 745 mmHg 92%
    01:00 +9°C° 0 mm 2 m/s 745 mmHg 93%
    02:00 +9°C° 0 mm 2 m/s 745 mmHg 93%
    03:00 +10°C° 0 mm 1 m/s 744 mmHg 94%
    04:00 +9°C° 0 mm 1 m/s 744 mmHg 94%
    05:00 +11°C° 0 mm 1 m/s 744 mmHg 89%
    06:00 +13°C° 0 mm 1 m/s 745 mmHg 85%
    07:00 +14°C° 0 mm 1 m/s 745 mmHg 81%
    08:00 +16°C° 0 mm 2 m/s 744 mmHg 74%
    09:00 +18°C° 0 mm 2 m/s 744 mmHg 67%
    10:00 +19°C° 0 mm 3 m/s 744 mmHg 60%
    11:00 +20°C° 0 mm 3 m/s 744 mmHg 58%
    12:00 +21°C° 0 mm 3 m/s 743 mmHg 57%
    13:00 +22°C° 0 mm 3 m/s 743 mmHg 55%
    14:00 +22°C° 0 mm 3 m/s 743 mmHg 57%
    15:00 +22°C° 0 mm 4 m/s 742 mmHg 58%
    16:00 +22°C° 0 mm 4 m/s 742 mmHg 60%
    17:00 +21°C° 0.1 mm 3 m/s 742 mmHg 66%
    18:00 +20°C° 0.1 mm 2 m/s 742 mmHg 72%
    19:00 +19°C° 0.1 mm 2 m/s 742 mmHg 78%
    20:00 +17°C° 0 mm 2 m/s 742 mmHg 80%
    21:00 +16°C° 0 mm 2 m/s 742 mmHg 82%
    22:00 +15°C° 0 mm 2 m/s 743 mmHg 85%
    23:00 +14°C° 0 mm 2 m/s 742 mmHg 86%

    Poimâine, 27 Mai, Luni

    Timp Temperatura Precipitaţii Vânt Presiune Umiditate
    00:00 +14°C° 0 mm 2 m/s 742 mmHg 86%
    01:00 +14°C° 0 mm 2 m/s 742 mmHg 87%
    02:00 +12°C° 0 mm 3 m/s 742 mmHg 88%
    03:00 +12°C° 0 mm 3 m/s 741 mmHg 88%
    04:00 +12°C° 0 mm 3 m/s 741 mmHg 89%
    05:00 +14°C° 0 mm 4 m/s 741 mmHg 84%
    06:00 +17°C° 0 mm 4 m/s 741 mmHg 79%
    07:00 +18°C° 0 mm 4 m/s 741 mmHg 74%
    08:00 +20°C° 0 mm 4 m/s 741 mmHg 68%
    09:00 +21°C° 0 mm 4 m/s 741 mmHg 62%
    10:00 +23°C° 0 mm 4 m/s 741 mmHg 56%
    11:00 +23°C° 0 mm 5 m/s 741 mmHg 55%
    12:00 +25°C° 0 mm 5 m/s 740 mmHg 53%
    13:00 +26°C° 0 mm 5 m/s 740 mmHg 52%
    14:00 +25°C° 0.3 mm 5 m/s 740 mmHg 56%
    15:00 +25°C° 0.3 mm 4 m/s 740 mmHg 60%
    16:00 +23°C° 0.3 mm 4 m/s 740 mmHg 65%
    17:00 +22°C° 0.6 mm 3 m/s 740 mmHg 72%
    18:00 +20°C° 0.6 mm 3 m/s 740 mmHg 80%
    19:00 +19°C° 0.6 mm 2 m/s 740 mmHg 87%
    20:00 +19°C° 0.1 mm 1 m/s 740 mmHg 89%
    21:00 +16°C° 0.1 mm 1 m/s 740 mmHg 90%
    22:00 +14°C° 0.1 mm 0 m/s 740 mmHg 92%
    23:00 +14°C° 0 mm 0 m/s 740 mmHg 92%

    28 Mai, Marţi

    Timp Temperatura Precipitaţii Vânt Presiune Umiditate
    00:00 +14°C° 0 mm 0 m/s 739 mmHg 93%
    01:00 +14°C° 0 mm 0 m/s 739 mmHg 93%
    02:00 +15°C° 0.8 mm 1 m/s 739 mmHg 95%
    03:00 +15°C° 0.8 mm 1 m/s 739 mmHg 96%
    04:00 +15°C° 0.8 mm 1 m/s 739 mmHg 97%
    05:00 +15°C° 2.4 mm 1 m/s 739 mmHg 98%
    06:00 +15°C° 2.4 mm 1 m/s 739 mmHg 98%
    07:00 +15°C° 2.4 mm 2 m/s 739 mmHg 98%
    08:00 +15°C° 2.6 mm 2 m/s 739 mmHg 98%
    09:00 +14°C° 2.6 mm 3 m/s 739 mmHg 97%
    10:00 +13°C° 2.6 mm 4 m/s 739 mmHg 97%
    11:00 +13°C° 1.4 mm 4 m/s 738 mmHg 97%
    12:00 +13°C° 1.4 mm 4 m/s 738 mmHg 96%
    13:00 +13°C° 1.4 mm 5 m/s 738 mmHg 96%
    14:00 +13°C° 0.5 mm 5 m/s 738 mmHg 96%
    15:00 +11°C° 0.5 mm 6 m/s 738 mmHg 95%
    16:00 +11°C° 0.5 mm 7 m/s 739 mmHg 95%
    17:00 +11°C° 0.6 mm 6 m/s 739 mmHg 95%
    18:00 +12°C° 0.6 mm 5 m/s 739 mmHg 96%
    19:00 +12°C° 0.6 mm 5 m/s 740 mmHg 96%
    20:00 +12°C° 0.6 mm 5 m/s 740 mmHg 96%
    21:00 +12°C° 0.6 mm 5 m/s 741 mmHg 96%
    22:00 +12°C° 0.6 mm 5 m/s 741 mmHg 96%
    23:00 +10°C° 0.3 mm 5 m/s 742 mmHg 96%

    29 Mai, Miercuri

    Timp Temperatura Precipitaţii Vânt Presiune Umiditate
    00:00 +10°C° 0.3 mm 5 m/s 742 mmHg 96%
    01:00 +10°C° 0.3 mm 5 m/s 742 mmHg 96%
    02:00 +9°C° 0.1 mm 5 m/s 743 mmHg 95%
    03:00 +8°C° 0.1 mm 5 m/s 743 mmHg 94%
    04:00 +7°C° 0.1 mm 5 m/s 744 mmHg 92%
    05:00 +7°C° 0 mm 5 m/s 745 mmHg 90%
    06:00 +8°C° 0 mm 5 m/s 745 mmHg 88%
    07:00 +8°C° 0 mm 5 m/s 746 mmHg 85%
    08:00 +9°C° 0 mm 5 m/s 747 mmHg 79%
    09:00 +10°C° 0 mm 5 m/s 747 mmHg 73%
    10:00 +12°C° 0 mm 5 m/s 747 mmHg 67%
    11:00 +13°C° 0 mm 5 m/s 748 mmHg 66%
    12:00 +13°C° 0 mm 5 m/s 748 mmHg 64%
    13:00 +14°C° 0 mm 5 m/s 748 mmHg 62%
    14:00 +14°C° 0 mm 4 m/s 748 mmHg 61%
    15:00 +14°C° 0 mm 4 m/s 749 mmHg 61%
    16:00 +15°C° 0 mm 4 m/s 749 mmHg 60%
    17:00 +14°C° 0 mm 3 m/s 749 mmHg 65%
    18:00 +13°C° 0 mm 3 m/s 750 mmHg 70%
    19:00 +13°C° 0 mm 2 m/s 750 mmHg 75%
    20:00 +12°C° 0 mm 2 m/s 750 mmHg 76%
    21:00 +11°C° 0 mm 1 m/s 751 mmHg 78%
    22:00 +9°C° 0 mm 1 m/s 752 mmHg 79%
    23:00 +9°C° 0 mm 1 m/s 752 mmHg 82%

    30 Mai, Joi

    Timp Temperatura Precipitaţii Vânt Presiune Umiditate
    00:00 +8°C° 0 mm 1 m/s 752 mmHg 84%
    01:00 +7°C° 0 mm 1 m/s 752 mmHg 87%
    02:00 +7°C° 0 mm 1 m/s 752 mmHg 87%
    03:00 +6°C° 0 mm 1 m/s 752 mmHg 88%
    04:00 +5°C° 0 mm 0 m/s 752 mmHg 88%
    05:00 +7°C° 0 mm 0 m/s 752 mmHg 83%
    06:00 +9°C° 0 mm 0 m/s 752 mmHg 78%
    07:00 +10°C° 0 mm 0 m/s 753 mmHg 72%
    08:00 +12°C° 0 mm 0 m/s 752 mmHg 67%
    09:00 +14°C° 0 mm 1 m/s 752 mmHg 62%
    10:00 +16°C° 0 mm 1 m/s 752 mmHg 57%
    11:00 +18°C° 0 mm 1 m/s 751 mmHg 55%
    12:00 +19°C° 0 mm 1 m/s 751 mmHg 52%
    13:00 +18°C° 0 mm 0 m/s 750 mmHg 50%
    14:00 +20°C° 0 mm 1 m/s 750 mmHg 51%
    15:00 +20°C° 0 mm 1 m/s 750 mmHg 52%
    16:00 +20°C° 0 mm 1 m/s 749 mmHg 53%
    17:00 +18°C° 0 mm 1 m/s 749 mmHg 60%
    18:00 +16°C° 0 mm 2 m/s 749 mmHg 67%
    19:00 +15°C° 0 mm 2 m/s 748 mmHg 74%
    20:00 +14°C° 0 mm 2 m/s 748 mmHg 76%
    21:00 +12°C° 0 mm 3 m/s 749 mmHg 77%
    22:00 +10°C° 0 mm 3 m/s 749 mmHg 79%
    23:00 +10°C° 0 mm 3 m/s 748 mmHg 77%
    Arată mai mult